Anniston, AL

6:31 PM CST on February 19, 2018 (GMT -0600)
Anniston Metro

Weather History for KANB - October, 2012

Change the Weather History Date:

Thursday, October 18, 2012

  Actual Average Record
Temperature  
Mean Temperature 62 °F 62 °F  
Max Temperature 77 °F 74 °F 89 °F (2016)
Min Temperature 47 °F 50 °F 32 °F (1948)
Degree Days  
Heating Degree Days 3    
Month to date heating degree days 53  
Since 1 July heating degree days 58  
Growing Degree Days 14 (Base 50)    
Moisture  
Dew Point 57 °F    
Average Humidity 65    
Maximum Humidity 97    
Minimum Humidity 33    
Precipitation  
Precipitation 0.45 in 0.10 in 3.05 in (1966)
Month to date precipitation 2.74 1.75  
Year to date precipitation 38.27 39.60  
Sea Level Pressure  
Sea Level Pressure 29.81 in    
Wind  
Wind Speed 5 mph (WSW)    
Max Wind Speed 17 mph    
Max Gust Speed 21 mph    
Visibility 8 miles    
Events Rain , Thunderstorm    
T = Trace of Precipitation, MM = Missing Value Source: NWS Daily Summary

Daily Weather History Graph

Daily Weather History Graph

Search for Another Location

Airport or City:

Trip Planner

Search our weather history database for the weather conditions in past years. The results will help you decide how hot, cold, wet, or windy it might be!

Date:

Astronomy

Oct. 18, 2012 Rise Set
Actual Time 6:50 AM CDT 6:05 PM CDT
Civil Twilight 6:25 AM CDT 6:30 PM CDT
Nautical Twilight 5:56 AM CDT 6:59 PM CDT
Astronomical Twilight 5:27 AM CDT 7:28 PM CDT
Moon 10:22 AM CDT (10/18) 8:49 PM CDT (10/18)
Length of Visible Light 12h 04m
Length of Day
11h 14m
Waxing Crescent, 14% of the Moon is Illuminated
Oct 18
Waxing Crescent
Oct 21
First Quarter
Oct 29
Full
Nov 6
Last Quarter
Nov 13
New

Hourly Weather History & Observations

Time (CDT) Temp. Dew Point Humidity Pressure Visibility Wind Dir Wind Speed Gust Speed Precip Events Conditions
12:53 AM 64.0 °F 53.1 °F 67% 29.78 in 10.0 mi North 4.6 mph - N/A   Scattered Clouds
1:53 AM 64.9 °F 55.9 °F 73% 29.75 in 10.0 mi SW 6.9 mph - N/A   Scattered Clouds
2:53 AM 66.9 °F 55.0 °F 66% 29.76 in 10.0 mi WSW 5.8 mph - N/A Thunderstorm Overcast
3:11 AM 64.4 °F 57.2 °F 77% 29.83 in 1.8 mi West 6.9 mph - 0.08 in Rain , Thunderstorm Thunderstorms and Rain
3:22 AM 62.6 °F 59.0 °F 88% 29.81 in - SW 5.8 mph - 0.13 in Rain , Thunderstorm Thunderstorms and Rain
3:31 AM 60.8 °F 59.0 °F 94% 29.81 in 2.0 mi SSE 3.5 mph - 0.18 in Rain , Thunderstorm Thunderstorms and Rain
3:38 AM 60.8 °F 59.0 °F 94% 29.83 in 2.0 mi Calm Calm - 0.21 in Rain Rain
3:53 AM 61.0 °F 60.1 °F 97% 29.82 in 1.5 mi Calm Calm - 0.28 in Rain Rain
4:06 AM 60.8 °F 60.8 °F 100% 29.82 in 2.0 mi South 6.9 mph - 0.07 in Rain Rain
4:19 AM 60.8 °F 59.0 °F 94% 29.78 in 1.8 mi SSE 6.9 mph 16.1 mph 0.17 in Rain Heavy Rain
4:24 AM 60.8 °F 59.0 °F 94% 29.78 in 3.0 mi Variable 6.9 mph - 0.17 in Rain Light Rain
4:53 AM 61.0 °F 59.0 °F 93% 29.76 in 10.0 mi NE 3.5 mph - 0.17 in   Mostly Cloudy
5:53 AM 60.1 °F 57.9 °F 93% 29.75 in 9.0 mi NNE 6.9 mph - N/A   Clear
6:53 AM 60.1 °F 59.0 °F 96% 29.78 in 8.0 mi Calm Calm - N/A   Overcast
7:34 AM 60.8 °F 59.0 °F 94% 29.81 in 9.0 mi West 3.5 mph - N/A   Overcast
7:43 AM 62.6 °F 60.8 °F 94% 29.81 in 9.0 mi West 3.5 mph - N/A   Mostly Cloudy
7:53 AM 62.1 °F 60.1 °F 93% 29.81 in 10.0 mi West 3.5 mph - N/A   Overcast
8:53 AM 64.0 °F 61.0 °F 90% 29.82 in 10.0 mi West 4.6 mph - N/A   Overcast
9:19 AM 64.4 °F 62.6 °F 94% 29.83 in 10.0 mi SW 3.5 mph - N/A   Mostly Cloudy
9:53 AM 66.0 °F 62.1 °F 87% 29.83 in 10.0 mi WSW 3.5 mph - N/A   Overcast
10:02 AM 66.2 °F 62.6 °F 88% 29.84 in 10.0 mi West 3.5 mph - N/A   Overcast
10:32 AM 66.2 °F 62.6 °F 88% 29.83 in 10.0 mi WSW 6.9 mph - N/A   Overcast
10:43 AM 66.2 °F 62.6 °F 88% 29.83 in 10.0 mi West 4.6 mph - N/A   Overcast
10:53 AM 68.0 °F 63.0 °F 84% 29.82 in 10.0 mi WSW 4.6 mph - N/A   Overcast
11:17 AM 68.0 °F 62.6 °F 83% 29.83 in 9.0 mi SW 8.1 mph - N/A   Overcast
11:28 AM 69.8 °F 62.6 °F 78% 29.83 in 9.0 mi SW 6.9 mph - N/A   Mostly Cloudy
11:53 AM 72.0 °F 64.0 °F 76% 29.82 in 9.0 mi WSW 6.9 mph - N/A   Mostly Cloudy
12:03 PM 69.8 °F 62.6 °F 78% 29.83 in 9.0 mi WSW 9.2 mph - N/A   Scattered Clouds
12:53 PM 73.9 °F 61.0 °F 64% 29.80 in 10.0 mi WSW 13.8 mph - N/A   Scattered Clouds
1:53 PM 75.9 °F 57.0 °F 52% 29.78 in 10.0 mi West 8.1 mph - N/A   Partly Cloudy
2:53 PM 77.0 °F 55.0 °F 47% 29.77 in 10.0 mi West 8.1 mph - N/A   Clear
3:53 PM 75.9 °F 48.0 °F 37% 29.78 in 10.0 mi WSW 8.1 mph - N/A   Clear
4:53 PM 73.9 °F 43.0 °F 33% 29.79 in 10.0 mi WSW 8.1 mph - N/A   Clear
5:53 PM 69.1 °F 46.0 °F 44% 29.81 in 10.0 mi SW 4.6 mph - N/A   Mostly Cloudy
6:53 PM 60.1 °F 51.1 °F 72% 29.82 in 10.0 mi SW 3.5 mph - N/A   Mostly Cloudy
7:53 PM 60.1 °F 48.9 °F 67% 29.84 in 10.0 mi WSW 5.8 mph - N/A   Mostly Cloudy
9:53 PM 55.0 °F 50.0 °F 83% 29.86 in 10.0 mi WSW 3.5 mph - N/A   Mostly Cloudy
10:53 PM 51.1 °F 46.9 °F 86% 29.88 in 10.0 mi WSW 3.5 mph - N/A   Clear
11:53 PM 48.0 °F 46.9 °F 96% 29.88 in 10.0 mi WSW 4.6 mph - N/A   Clear